NJE21J LIMG-LIPZ

Flight info

Callsign NJE21J
Flight time 0h 38m
Altitude 34000
Route ITCAP1B/09 ITCAP DCT MONEB DCT ALBET
Aircraft C700/M-SBDGHM1RWXY/LB2

Departure

Time 2026-05-06 16:01
Airport Riviera Villanova d'Albenga International Airport (LIMG)

Arrival

Time 2026-05-06 16:39
Airport Venice Marco Polo Airport (LIPZ)
Time Latitude Longitude Altitude Speed Heading
2026-05-06 15:26 44.04568 8.12623 147 ft 0 kts 180°
2026-05-06 15:56 44.04558 8.12619 148 ft 4 kts 206°
2026-05-06 15:57 44.04552 8.12530 149 ft 15 kts 280°
2026-05-06 15:57 44.04593 8.12372 154 ft 17 kts 290°
2026-05-06 15:57 44.04655 8.12247 163 ft 15 kts 315°
2026-05-06 15:57 44.04735 8.12134 163 ft 19 kts 313°
2026-05-06 15:58 44.04836 8.11989 160 ft 21 kts 314°
2026-05-06 15:58 44.04908 8.11883 155 ft 15 kts 320°
2026-05-06 15:58 44.04995 8.11869 151 ft 8 kts 18°
2026-05-06 15:58 44.05007 8.11875 150 ft 0 kts 20°
2026-05-06 15:59 44.05008 8.11875 150 ft 2 kts 19°
2026-05-06 16:00 44.05077 8.11913 148 ft 11 kts 34°
2026-05-06 16:00 44.05084 8.11979 148 ft 4 kts 91°
2026-05-06 16:00 44.05084 8.11981 148 ft 0 kts 91°
2026-05-06 16:00 44.05084 8.11987 148 ft 11 kts 91°
2026-05-06 16:01 44.05055 8.12689 137 ft 129 kts 99°
2026-05-06 16:01 44.05047 8.14272 508 ft 186 kts 91°
2026-05-06 16:01 44.05220 8.16144 1335 ft 202 kts 85°
2026-05-06 16:01 44.05403 8.18055 2486 ft 195 kts 90°
2026-05-06 16:02 44.05516 8.19904 3653 ft 190 kts 91°
2026-05-06 16:02 44.05596 8.21742 4825 ft 190 kts 91°
2026-05-06 16:02 44.05725 8.23586 5975 ft 193 kts 87°
2026-05-06 16:02 44.05843 8.25423 6999 ft 195 kts 89°
2026-05-06 16:03 44.05961 8.27309 8014 ft 197 kts 88°
2026-05-06 16:03 44.06089 8.29219 9010 ft 200 kts 88°
2026-05-06 16:03 44.06219 8.31162 9942 ft 204 kts 89°
2026-05-06 16:03 44.06351 8.33199 10707 ft 226 kts 88°
2026-05-06 16:04 44.06503 8.35525 11731 ft 255 kts 88°
2026-05-06 16:04 44.06709 8.38108 12964 ft 281 kts 81°
2026-05-06 16:04 44.07420 8.40693 14383 ft 296 kts 63°
2026-05-06 16:04 44.08637 8.43164 15401 ft 324 kts 52°
2026-05-06 16:05 44.09791 8.45294 16290 ft 344 kts 53°
2026-05-06 16:05 44.11223 8.48036 17725 ft 356 kts 54°
2026-05-06 16:05 44.12700 8.50880 18964 ft 369 kts 54°
2026-05-06 16:05 44.14237 8.53811 20208 ft 379 kts 54°
2026-05-06 16:06 44.15813 8.56820 21419 ft 390 kts 54°
2026-05-06 16:06 44.17429 8.59910 22622 ft 399 kts 55°
2026-05-06 16:06 44.19081 8.63082 23722 ft 410 kts 55°
2026-05-06 16:06 44.20813 8.66408 24036 ft 442 kts 55°
2026-05-06 16:07 44.22699 8.70031 24051 ft 479 kts 55°
2026-05-06 16:07 44.24726 8.73924 24060 ft 510 kts 55°
2026-05-06 16:07 44.26827 8.77962 24060 ft 514 kts 55°
2026-05-06 16:07 44.28918 8.81994 24062 ft 511 kts 55°
2026-05-06 16:08 44.30995 8.86010 24063 ft 512 kts 55°
2026-05-06 16:08 44.33081 8.90041 24064 ft 512 kts 55°
2026-05-06 16:08 44.35161 8.94066 24063 ft 509 kts 55°
2026-05-06 16:08 44.37220 8.98062 24062 ft 505 kts 55°
2026-05-06 16:09 44.39264 9.02029 24058 ft 501 kts 55°
2026-05-06 16:09 44.41391 9.05805 24048 ft 499 kts 47°
2026-05-06 16:09 44.43924 9.09098 24034 ft 495 kts 38°
2026-05-06 16:09 44.46753 9.11810 24035 ft 491 kts 29°
2026-05-06 16:10 44.49690 9.14235 24027 ft 488 kts 28°
2026-05-06 16:10 44.52602 9.16667 24030 ft 489 kts 28°
2026-05-06 16:10 44.55510 9.19102 25272 ft 481 kts 28°
2026-05-06 16:10 44.58367 9.21518 26524 ft 483 kts 31°
2026-05-06 16:11 44.61011 9.24461 27631 ft 486 kts 42°
2026-05-06 16:11 44.63296 9.27946 28820 ft 485 kts 53°
2026-05-06 16:11 44.65149 9.31863 29873 ft 479 kts 63°
2026-05-06 16:11 44.66718 9.36050 29997 ft 489 kts 66°
2026-05-06 16:12 44.69849 9.44695 29990 ft 508 kts 66°
2026-05-06 16:12 44.73146 9.53631 29987 ft 520 kts 66°
2026-05-06 16:13 44.76480 9.62813 29991 ft 531 kts 66°
2026-05-06 16:13 44.79885 9.72148 29986 ft 541 kts 66°
2026-05-06 16:14 44.83347 9.81720 29989 ft 548 kts 65°
2026-05-06 16:14 44.86780 9.91217 29990 ft 547 kts 65°
2026-05-06 16:15 44.90228 10.00809 29996 ft 548 kts 65°
2026-05-06 16:15 44.93674 10.10415 30013 ft 549 kts 65°
2026-05-06 16:16 44.97114 10.20044 30009 ft 550 kts 65°
2026-05-06 16:16 45.00553 10.29706 30007 ft 549 kts 65°
2026-05-06 16:17 45.03963 10.39318 30008 ft 544 kts 65°
2026-05-06 16:17 45.07353 10.48910 30014 ft 547 kts 65°
2026-05-06 16:18 45.10745 10.58536 30025 ft 545 kts 65°
2026-05-06 16:18 45.14102 10.68103 30030 ft 543 kts 65°
2026-05-06 16:19 45.17441 10.77655 30042 ft 545 kts 65°
2026-05-06 16:19 45.20800 10.87294 30050 ft 543 kts 65°
2026-05-06 16:20 45.24090 10.96761 28914 ft 520 kts 66°
2026-05-06 16:20 45.25667 11.01312 27546 ft 508 kts 66°
2026-05-06 16:20 45.27204 11.05770 26274 ft 496 kts 65°
2026-05-06 16:21 45.28708 11.10124 25043 ft 486 kts 65°
2026-05-06 16:21 45.30179 11.14391 23871 ft 475 kts 65°
2026-05-06 16:21 45.31617 11.18574 22580 ft 466 kts 65°
2026-05-06 16:21 45.33023 11.22662 21312 ft 456 kts 65°
2026-05-06 16:22 45.34393 11.26660 20088 ft 446 kts 65°
2026-05-06 16:22 45.35722 11.30542 18941 ft 437 kts 65°
2026-05-06 16:22 45.37037 11.34381 18063 ft 420 kts 65°
2026-05-06 16:22 45.38274 11.38002 17384 ft 395 kts 65°
2026-05-06 16:23 45.39439 11.41428 16500 ft 381 kts 66°
2026-05-06 16:23 45.40242 11.44965 15672 ft 371 kts 82°
2026-05-06 16:23 45.40461 11.48563 14879 ft 360 kts 95°
2026-05-06 16:23 45.40139 11.52031 14109 ft 349 kts 108°
2026-05-06 16:24 45.39340 11.55225 13299 ft 338 kts 120°
2026-05-06 16:24 45.38138 11.58036 12412 ft 328 kts 131°
2026-05-06 16:24 45.36681 11.60449 11954 ft 316 kts 132°
2026-05-06 16:24 45.35573 11.63178 11702 ft 325 kts 120°
2026-05-06 16:25 45.34819 11.66268 11427 ft 337 kts 107°
2026-05-06 16:25 45.34528 11.69581 11144 ft 337 kts 94°
2026-05-06 16:25 45.34652 11.72833 10812 ft 322 kts 88°
2026-05-06 16:25 45.34806 11.75917 10224 ft 307 kts 89°
2026-05-06 16:26 45.34931 11.78960 9248 ft 308 kts 89°
2026-05-06 16:26 45.34978 11.81963 8350 ft 300 kts 99°
2026-05-06 16:26 45.34347 11.84664 8038 ft 277 kts 120°
2026-05-06 16:26 45.33256 11.86811 8028 ft 263 kts 140°
2026-05-06 16:27 45.31807 11.88312 8026 ft 255 kts 158°
2026-05-06 16:27 45.30141 11.89108 8027 ft 251 kts 174°
2026-05-06 16:27 45.28414 11.89171 8031 ft 247 kts 190°
2026-05-06 16:27 45.26776 11.88537 8026 ft 246 kts 206°
2026-05-06 16:28 45.25346 11.87279 8027 ft 240 kts 221°
2026-05-06 16:28 45.24127 11.85721 7679 ft 235 kts 223°
2026-05-06 16:28 45.22886 11.84180 7168 ft 237 kts 222°
2026-05-06 16:28 45.21658 11.82638 6719 ft 235 kts 223°
2026-05-06 16:29 45.20434 11.81100 6281 ft 235 kts 223°
2026-05-06 16:29 45.19218 11.79572 5833 ft 233 kts 223°
2026-05-06 16:29 45.18001 11.78045 5347 ft 234 kts 222°
2026-05-06 16:29 45.16739 11.76599 4987 ft 231 kts 210°
2026-05-06 16:30 45.15217 11.76316 4971 ft 221 kts 172°
2026-05-06 16:30 45.14265 11.76783 4971 ft 220 kts 157°
2026-05-06 16:30 45.12856 11.78934 4974 ft 237 kts 116°
2026-05-06 16:30 45.12646 11.81296 4973 ft 251 kts 82°
2026-05-06 16:31 45.13333 11.83557 4974 ft 252 kts 58°
2026-05-06 16:31 45.14315 11.85616 4980 ft 252 kts 53°
2026-05-06 16:31 45.15489 11.87458 4981 ft 251 kts 43°
2026-05-06 16:31 45.16740 11.89147 4986 ft 251 kts 44°
2026-05-06 16:32 45.17934 11.90951 4987 ft 251 kts 47°
2026-05-06 16:32 45.19104 11.92794 4988 ft 251 kts 47°
2026-05-06 16:32 45.20290 11.94616 4990 ft 251 kts 46°
2026-05-06 16:32 45.21481 11.96438 4993 ft 251 kts 46°
2026-05-06 16:33 45.22668 11.98258 4990 ft 251 kts 46°
2026-05-06 16:33 45.23855 12.00079 4992 ft 252 kts 47°
2026-05-06 16:33 45.25043 12.01910 4993 ft 252 kts 47°
2026-05-06 16:34 45.27423 12.05577 4991 ft 252 kts 47°
2026-05-06 16:34 45.28679 12.07306 4994 ft 251 kts 40°
2026-05-06 16:34 45.29999 12.08933 4995 ft 251 kts 40°
2026-05-06 16:34 45.31297 12.10588 4997 ft 251 kts 41°
2026-05-06 16:35 45.32593 12.12250 4994 ft 251 kts 41°
2026-05-06 16:35 45.33967 12.13750 4984 ft 248 kts 23°
2026-05-06 16:35 45.35498 12.14876 4775 ft 256 kts 35°
2026-05-06 16:35 45.36866 12.16646 4077 ft 268 kts 44°
2026-05-06 16:36 45.38168 12.18538 3537 ft 267 kts 47°
2026-05-06 16:36 45.39413 12.20430 3200 ft 259 kts 47°
2026-05-06 16:36 45.40648 12.22296 2685 ft 259 kts 47°
2026-05-06 16:36 45.41827 12.24024 2113 ft 234 kts 44°
2026-05-06 16:37 45.42993 12.25504 1213 ft 219 kts 43°
2026-05-06 16:37 45.44117 12.26947 746 ft 202 kts 43°
2026-05-06 16:37 45.45090 12.28163 628 ft 178 kts 43°
2026-05-06 16:37 45.46047 12.29370 488 ft 179 kts 43°
2026-05-06 16:38 45.46856 12.30421 519 ft 128 kts 44°
2026-05-06 16:38 45.47550 12.31317 401 ft 141 kts 44°
2026-05-06 16:38 45.48254 12.32242 275 ft 129 kts 44°
2026-05-06 16:38 45.48905 12.33089 150 ft 125 kts 45°
2026-05-06 16:39 45.49515 12.33891 15 ft 110 kts 46°
2026-05-06 16:39 45.49844 12.34331 4 ft 83 kts 39°
2026-05-06 16:39 45.50196 12.34783 9 ft 55 kts 42°
2026-05-06 16:39 45.50385 12.35015 6 ft 20 kts 35°
2026-05-06 16:40 45.50479 12.35053 7 ft 13 kts 10°
2026-05-06 16:40 45.50543 12.35074 8 ft 4 kts 12°
2026-05-06 16:40 45.50592 12.35070 7 ft 9 kts 321°
2026-05-06 16:40 45.50598 12.35057 7 ft 0 kts 302°
2026-05-06 16:41 45.50611 12.35021 7 ft 10 kts 288°
2026-05-06 16:41 45.50610 12.34905 8 ft 14 kts 266°
2026-05-06 16:41 45.50616 12.34773 9 ft 15 kts 291°
2026-05-06 16:41 45.50674 12.34672 8 ft 10 kts 312°
2026-05-06 16:42 45.50726 12.34590 7 ft 6 kts 312°
2026-05-06 16:42 45.50761 12.34535 7 ft 10 kts 311°
2026-05-06 16:42 45.50820 12.34548 7 ft 8 kts 53°
2026-05-06 16:42 45.50838 12.34571 7 ft 3 kts 39°
2026-05-06 16:43 45.50846 12.34582 7 ft 0 kts 44°
2026-05-06 16:43 45.50857 12.34597 7 ft 0 kts 44°